Theta_e
302 303 303 303 304 305 305 305 304 304 304 305 305 306 306 307 307 307 308 309 310 310 310 310 310 310 311 311 312 312 313 316 319 330 342 348 349 349 349 348 347 347 346 344 343 343 344 343 341 340 340 340 340 339 339 339 339 339 339 339 340 341 341 342 341 342 342 342 341 340 341 341 341 340 339 338 338 337 337 337 337 338 339 340 340 340
302 302 302 301 303 304 305 305 304 304 304 304 305 305 305 305 305 306 306 307 308 308 309 309 309 309 310 310 311 313 313 313 315 323 337 346 349 349 349 348 347 347 346 346 345 344 344 343 342 341 340 340 339 340 339 339 339 339 339 339 340 340 341 342 341 341 341 341 341 341 341 340 340 339 338 338 337 337 337 338 338 338 339 340 340 339
304 303 302 301 302 303 303 304 304 304 304 304 304 305 305 305 305 305 305 306 306 307 307 308 308 309 310 310 311 312 312 312 313 320 330 341 348 350 349 348 347 346 347 348 346 345 344 343 342 341 340 340 339 339 339 340 340 339 339 339 340 341 341 341 341 341 341 340 341 341 341 340 339 338 338 338 338 337 338 338 339 339 340 340 339 338
304 303 303 302 302 302 303 303 303 303 303 304 304 304 304 304 305 306 306 306 306 306 307 307 308 308 309 310 311 312 313 313 315 322 327 334 344 349 349 348 348 347 347 348 348 347 345 343 341 341 340 340 340 339 339 339 339 339 339 339 339 340 340 340 341 340 340 340 340 341 340 340 338 338 338 338 338 338 338 339 339 340 341 340 338 338
304 304 303 303 302 302 302 302 303 303 303 303 303 303 304 304 304 305 305 306 306 306 306 307 307 307 308 309 310 312 314 314 314 322 328 330 337 345 348 348 347 347 347 347 348 347 346 343 341 341 340 340 339 339 339 339 339 339 339 339 339 340 340 340 340 340 340 340 340 340 339 339 338 338 338 339 340 340 340 340 339 340 340 340 338 338
303 303 303 303 302 302 301 302 302 303 304 304 303 303 303 304 304 304 305 305 306 306 306 307 306 308 313 313 311 312 314 314 312 317 324 328 334 339 345 348 347 346 346 346 347 347 346 343 341 341 340 340 339 339 339 339 339 339 338 339 339 339 339 340 340 340 340 340 339 339 338 337 337 337 338 339 340 340 340 339 339 339 339 339 338 338
303 303 303 302 302 302 301 301 301 302 304 304 304 304 304 304 304 304 305 305 306 306 306 307 307 309 314 315 314 314 314 314 313 313 318 325 331 336 342 347 347 347 346 346 346 346 346 344 342 341 340 339 339 339 339 339 339 338 338 338 338 339 339 340 340 339 339 340 339 339 339 338 337 336 337 338 339 339 339 338 338 339 339 338 338 337
304 303 303 303 302 302 301 301 301 301 302 303 304 304 304 304 304 304 305 305 305 306 306 306 307 307 309 311 314 314 313 313 313 313 315 320 326 332 338 345 348 347 347 347 346 346 346 344 343 341 340 340 340 339 339 339 338 338 338 338 338 338 339 339 339 340 339 339 339 339 338 338 337 337 337 338 338 338 338 338 339 339 338 337 337 337
304 304 303 302 302 302 301 301 301 301 301 302 302 303 303 304 304 304 305 305 305 306 306 306 306 307 307 309 312 311 311 312 312 313 313 317 322 326 333 342 347 348 347 347 347 346 345 344 342 341 341 340 340 339 339 338 338 338 338 338 338 338 339 339 339 340 339 339 339 338 338 337 337 337 337 337 338 338 338 338 338 338 337 336 336 336
305 305 304 303 304 304 303 303 303 301 302 303 303 303 303 303 304 305 305 305 305 307 307 306 306 306 307 310 310 310 311 312 312 312 313 315 318 322 327 337 345 347 348 348 347 346 345 343 342 342 341 341 340 339 339 339 338 338 338 338 338 338 338 339 339 339 339 339 339 338 338 337 337 337 337 337 337 338 338 338 338 337 337 336 335 336
305 304 305 305 305 304 304 304 304 303 303 303 303 302 302 303 303 305 305 305 307 308 307 306 306 306 307 310 310 311 314 316 314 314 313 314 316 318 323 331 340 345 347 348 347 346 345 343 342 342 341 340 340 339 338 338 338 337 338 337 338 338 338 339 339 339 339 339 339 338 338 337 337 337 336 336 337 337 338 337 337 336 336 336 335 335
305 305 305 306 305 304 304 304 303 303 303 303 303 302 303 306 307 306 306 307 307 308 307 306 307 307 307 309 309 311 314 314 314 314 314 313 314 316 319 326 336 342 345 347 348 347 345 344 343 342 341 340 339 339 338 338 338 337 337 338 338 338 338 339 339 339 339 338 338 338 337 338 337 337 337 337 336 337 337 337 336 335 335 335 335 334
306 305 305 305 305 305 304 304 303 303 303 302 303 303 303 306 308 307 307 308 308 307 307 308 307 307 308 309 309 310 311 310 311 313 313 313 313 315 316 320 330 338 343 346 347 347 346 345 344 342 341 340 339 339 338 338 338 337 337 338 338 338 338 339 339 338 338 338 338 337 337 337 337 337 337 337 336 336 337 336 336 335 334 335 333 333
307 307 305 304 305 305 304 304 304 304 305 303 303 305 304 306 309 310 310 311 310 309 309 307 308 308 308 310 310 309 309 309 310 310 311 312 312 314 315 317 325 335 341 345 347 347 346 345 344 343 341 340 339 338 338 338 338 337 337 338 338 338 338 339 339 339 338 338 337 337 337 337 337 337 337 337 336 337 337 336 335 335 334 334 333 332
309 310 308 305 305 305 304 304 304 305 305 303 303 306 307 308 311 311 310 311 311 313 313 310 310 312 310 313 315 311 310 309 309 311 311 312 312 312 315 317 323 333 340 344 346 346 346 345 344 342 341 340 340 339 338 338 338 337 337 338 338 338 339 339 339 338 338 338 337 337 337 337 337 337 337 336 336 336 336 336 335 334 333 332 332 331
307 309 308 305 304 304 304 304 303 303 303 303 303 303 304 306 310 310 310 314 312 314 318 315 316 319 315 317 318 313 312 310 311 315 315 315 315 312 315 318 323 333 339 343 346 346 346 345 343 342 342 341 340 339 338 338 338 337 337 338 338 338 339 339 339 339 338 338 337 337 337 337 336 336 336 336 336 336 336 335 334 333 332 332 331 331
308 309 307 305 306 305 304 304 303 303 305 306 304 303 304 305 308 309 310 314 313 312 316 315 316 320 316 316 318 313 313 312 312 315 316 316 316 315 315 317 323 332 339 343 345 346 346 345 344 342 342 341 340 339 339 339 338 338 337 338 338 338 339 339 339 338 338 338 337 337 337 336 336 336 336 336 336 335 335 334 333 332 331 331 331 330
309 309 307 305 306 306 305 304 303 303 305 305 304 305 309 310 309 309 310 312 313 313 316 315 316 317 314 319 323 315 313 316 315 315 316 315 315 315 315 316 322 331 339 343 345 346 346 345 344 343 342 341 340 340 339 339 339 338 338 338 338 338 339 339 339 339 338 338 337 337 336 336 336 336 336 336 335 335 334 333 332 331 331 331 330 330
307 308 308 306 305 306 305 305 305 305 302 303 304 305 311 313 311 311 309 311 313 315 317 318 318 316 315 318 322 316 315 319 320 319 319 318 317 316 316 314 320 330 338 343 345 345 345 345 344 343 342 341 340 340 340 339 339 339 338 338 338 338 339 339 339 338 338 338 337 337 336 336 336 336 335 335 335 334 334 333 332 331 331 331 330 329
307 308 310 308 305 306 307 307 309 308 303 303 305 304 309 312 312 312 310 311 315 318 319 321 320 320 319 318 317 317 317 318 320 322 322 321 321 320 318 315 319 331 338 342 345 345 345 345 344 342 341 341 341 340 340 339 339 339 338 339 339 338 338 338 338 338 338 338 337 337 336 336 336 336 335 335 335 334 333 333 332 331 331 331 330 329
308 307 309 309 306 307 308 309 310 310 305 304 305 307 309 309 309 312 312 312 315 317 320 321 321 323 323 321 319 317 318 319 322 324 325 325 324 323 321 317 318 331 339 341 344 344 344 344 343 342 341 341 341 340 340 340 339 339 339 338 339 339 338 338 338 338 338 337 337 336 336 336 335 335 335 335 334 334 333 332 332 332 331 331 329 328
310 309 308 308 308 307 308 308 307 307 306 305 305 306 308 308 309 310 313 314 315 315 318 318 318 321 321 321 320 317 318 322 324 326 327 327 325 324 323 320 319 331 339 341 343 344 343 344 343 341 341 341 341 340 340 340 340 339 339 339 339 339 338 339 338 338 338 337 337 336 336 335 335 335 335 334 334 333 332 332 332 332 331 330 329 328
310 309 309 309 308 307 307 306 306 306 306 306 305 304 305 309 310 310 314 318 317 316 317 316 318 323 324 321 317 316 317 320 323 326 327 326 325 324 324 322 321 330 338 340 342 343 343 343 342 341 341 341 341 341 340 340 340 340 339 339 339 339 338 338 338 338 338 337 337 336 336 335 335 334 334 334 333 332 332 332 332 332 331 330 329 328
309 309 310 309 309 309 308 307 307 307 307 308 308 306 304 307 308 311 318 320 318 317 318 317 318 323 325 319 314 315 317 318 320 323 325 325 325 323 323 322 323 329 337 340 341 343 342 343 342 341 341 341 341 341 341 341 341 340 340 339 339 339 339 338 338 338 338 337 337 336 336 335 335 335 334 333 333 332 331 331 331 331 331 330 329 327
310 311 311 310 312 313 312 311 308 308 309 310 311 307 305 306 307 312 319 317 317 319 318 317 319 319 319 316 314 315 317 317 318 320 322 323 323 322 322 323 323 328 337 341 341 342 343 342 343 342 341 341 341 341 341 341 341 341 340 340 339 339 339 338 338 338 337 337 337 336 336 335 335 334 334 333 332 332 331 331 331 331 330 329 328 326
311 312 311 312 313 313 312 313 311 310 310 310 309 307 307 307 308 313 318 316 316 320 319 318 318 317 314 313 314 315 317 318 318 319 320 321 321 321 322 323 325 328 336 341 341 342 343 342 342 342 341 341 341 341 341 341 341 341 340 340 340 339 339 338 338 337 337 337 336 336 336 335 335 334 333 333 332 332 331 331 331 330 329 328 327 325
311 312 311 312 313 311 311 313 312 312 312 310 309 308 308 308 309 313 319 319 317 318 319 319 318 316 315 314 314 315 316 318 320 321 321 321 321 322 322 324 326 327 334 340 340 341 343 342 342 342 341 341 341 341 341 340 341 341 341 340 340 339 339 338 338 337 337 337 336 336 336 335 334 333 333 332 332 332 331 331 331 330 329 328 326 325
313 312 311 311 311 310 310 310 310 311 313 313 311 309 309 310 311 312 316 320 320 318 317 318 318 317 316 313 313 314 315 317 320 322 322 321 321 322 323 327 330 330 333 339 341 342 342 342 342 342 341 341 341 340 340 340 340 340 340 340 339 339 339 338 337 337 337 336 336 336 336 335 334 333 333 332 332 331 331 330 330 329 329 328 326 325
314 312 312 312 311 311 311 310 310 312 313 314 313 312 310 310 312 312 312 317 321 319 316 316 317 317 315 313 314 314 314 318 322 324 323 321 322 324 326 329 333 335 336 339 342 342 342 342 342 342 341 341 340 340 340 340 340 340 340 340 339 339 338 338 337 337 337 336 336 336 335 335 334 333 332 332 331 330 330 330 329 328 327 327 326 325
313 312 314 314 313 314 314 314 314 315 317 318 317 315 311 310 312 312 312 315 318 318 318 317 316 316 314 313 313 313 316 321 323 323 322 322 324 327 329 330 335 339 339 340 342 342 341 342 341 341 341 340 340 339 339 339 339 339 340 340 339 339 338 338 337 337 337 336 336 336 335 335 334 333 332 332 331 330 329 328 328 326 325 326 326 324
313 314 315 316 316 316 316 317 316 316 318 319 319 319 315 312 312 312 312 316 317 317 317 316 316 315 313 313 315 318 321 324 323 322 323 326 326 328 329 330 334 341 342 341 342 341 341 342 341 341 341 340 339 339 339 339 339 339 339 339 339 339 338 338 338 337 337 336 336 336 335 335 334 333 332 332 331 329 328 327 326 325 325 324 324 323
313 316 317 316 317 316 317 319 317 315 317 318 320 324 320 314 315 315 314 316 316 315 315 316 316 314 312 314 321 326 327 325 324 324 327 328 325 326 330 331 333 340 343 342 342 342 342 341 341 340 340 339 339 338 338 338 339 339 339 339 339 339 338 338 338 337 337 336 336 335 335 334 333 333 332 331 330 328 327 326 325 324 323 322 322 322
316 317 318 318 318 316 317 319 317 316 319 320 320 322 320 318 317 316 315 316 316 314 315 316 314 312 314 318 324 329 328 325 325 325 327 326 325 327 331 331 334 340 343 342 341 341 341 341 340 340 340 339 338 338 338 338 338 338 338 339 339 338 338 338 337 337 337 336 336 335 334 334 333 332 332 331 329 327 326 326 324 323 323 322 321 321
319 317 316 318 319 318 318 319 317 316 320 322 320 318 318 319 317 316 316 315 315 314 315 315 313 313 317 320 325 330 328 325 324 324 324 325 326 329 332 333 336 340 342 341 341 341 341 340 340 339 338 339 338 338 338 338 338 338 338 338 338 338 338 338 337 337 337 336 336 335 334 334 332 332 331 330 329 327 325 325 323 323 324 322 320 319
318 317 317 318 319 320 320 319 319 319 321 322 319 318 320 320 318 319 320 317 317 321 322 322 319 317 316 318 328 334 329 324 324 323 323 323 324 328 332 334 338 342 343 341 341 341 341 340 340 339 337 338 338 337 337 337 337 337 338 338 338 338 338 338 337 337 337 336 335 334 334 333 332 331 330 329 327 326 325 324 322 322 322 321 320 320
317 319 318 318 318 319 319 319 320 320 319 319 317 318 321 320 319 322 323 321 320 322 324 326 325 324 321 323 332 334 325 322 323 322 321 322 323 327 331 333 337 343 345 344 342 343 342 339 338 338 337 337 337 337 337 337 337 337 337 337 338 338 338 338 337 337 336 336 335 334 333 332 331 331 329 328 326 325 323 322 322 322 321 319 319 320
318 318 318 318 317 317 320 321 320 319 318 318 318 319 321 321 321 322 324 324 323 321 323 325 326 326 325 327 332 331 325 323 324 321 319 320 322 326 329 331 335 340 341 340 340 340 338 337 337 337 336 337 337 337 337 337 337 337 337 337 337 337 338 337 337 337 336 335 334 333 332 332 331 330 328 327 325 324 322 322 322 321 320 319 319 319
317 316 317 318 317 317 320 321 321 321 320 317 317 319 320 320 320 320 322 326 326 323 323 324 324 325 325 326 329 329 327 324 323 321 318 318 319 320 322 327 333 338 338 337 338 337 335 336 337 336 336 337 336 336 337 337 337 337 336 336 337 337 337 337 337 336 336 335 334 333 332 332 331 329 327 326 325 324 323 322 322 321 321 320 320 319
317 316 316 318 319 319 320 321 321 322 321 318 317 318 318 320 320 320 323 326 325 322 322 323 324 325 325 325 327 327 328 327 324 321 319 319 318 317 317 321 329 335 334 332 334 337 335 335 337 336 336 336 336 336 337 336 336 336 336 336 336 336 337 337 336 336 335 334 333 332 332 331 331 329 327 326 325 324 324 323 322 322 321 321 321 321
318 317 317 319 320 319 319 321 321 321 320 319 318 317 317 319 320 321 324 324 322 321 323 323 323 324 324 325 326 327 328 327 323 321 322 323 322 321 323 325 327 331 332 329 331 336 336 335 336 336 336 336 336 336 336 336 336 336 336 336 336 336 336 336 336 336 335 334 332 332 332 331 330 329 327 326 325 325 324 324 322 321 320 320 321 321
319 318 318 319 319 319 320 320 320 321 321 320 318 317 318 319 320 322 324 322 320 321 323 322 322 324 324 325 325 327 327 325 324 325 325 326 331 332 333 332 327 325 327 329 331 334 335 335 335 336 336 336 336 336 336 336 336 335 335 335 335 336 336 336 336 335 334 333 332 331 331 330 329 329 328 327 326 325 324 323 322 321 320 320 319 319
319 318 318 319 319 319 319 320 321 321 320 319 318 318 319 321 322 322 321 320 320 321 322 322 322 323 324 324 325 326 326 325 326 326 325 328 336 338 339 339 333 326 326 329 331 333 334 334 335 336 336 337 336 336 336 336 336 335 335 335 335 335 336 335 335 334 333 332 331 331 330 329 329 329 328 327 325 323 322 322 321 321 320 319 318 317
318 317 317 318 319 319 320 321 323 321 319 318 318 318 319 320 321 321 320 321 320 320 321 321 322 322 323 325 324 324 325 325 325 325 327 331 334 334 337 341 340 335 332 331 331 332 333 334 334 335 336 337 336 336 336 335 334 334 334 334 335 335 335 335 334 334 333 332 331 330 329 329 329 328 327 325 324 323 322 320 320 319 318 317 316 315
317 315 314 316 318 319 320 321 322 322 320 319 319 319 319 320 321 321 322 321 319 319 321 321 321 321 322 323 323 324 325 325 325 326 329 332 331 330 333 337 340 342 340 334 331 331 332 333 335 334 335 336 336 336 336 335 333 332 333 335 335 335 335 334 333 333 332 331 331 330 329 328 328 326 325 324 322 321 320 319 319 318 317 315 314 313
313 311 314 317 318 319 320 320 320 321 321 320 320 320 320 320 320 322 322 321 320 320 320 321 321 322 322 321 322 324 325 325 325 324 325 329 330 330 334 337 339 340 338 332 329 330 332 333 334 334 333 334 334 335 336 335 333 332 333 334 335 335 334 333 333 332 332 331 330 329 328 326 325 324 323 323 322 321 320 319 318 316 315 314 314 313
309 311 314 316 315 317 319 319 318 319 319 319 320 321 321 320 321 322 321 321 321 321 320 320 321 322 321 321 322 324 325 325 324 324 323 325 327 327 330 335 336 334 333 331 328 328 331 332 333 333 332 331 333 335 336 336 335 333 333 334 334 334 334 333 332 331 331 329 328 327 326 325 323 322 322 322 322 322 321 319 317 316 315 315 314 313
309 310 311 311 313 316 318 316 316 316 316 317 320 321 321 321 321 321 321 321 321 321 321 321 321 321 321 321 322 324 325 324 324 325 324 324 325 325 327 331 333 332 331 331 329 328 329 331 332 333 331 330 332 334 334 334 333 332 332 332 332 332 332 332 331 330 329 327 326 326 325 324 322 321 321 321 321 320 319 318 317 316 315 314 313 312
307 308 309 311 314 315 314 312 312 313 313 316 321 323 323 322 320 320 320 321 322 321 320 320 321 321 321 321 321 323 325 324 324 325 325 324 324 324 324 326 329 328 326 326 326 327 327 327 329 330 328 327 329 330 330 331 331 330 330 330 330 329 329 329 329 328 326 324 324 324 323 323 321 320 320 320 320 319 318 318 317 316 316 315 315 313
306 308 310 312 312 311 311 310 310 310 310 312 316 318 320 322 322 321 320 321 321 321 320 320 321 321 320 321 321 323 324 325 324 324 324 325 325 325 325 325 326 326 324 323 325 326 325 324 325 325 324 325 327 328 329 329 329 329 330 330 329 327 326 326 327 326 324 323 322 321 321 321 321 320 320 319 319 319 318 318 318 318 317 317 318 317
307 309 311 311 310 309 309 308 308 310 311 311 310 311 313 318 322 322 321 321 321 321 321 321 321 320 320 320 320 322 324 324 323 323 324 324 324 325 325 324 325 325 324 323 324 324 324 324 324 324 324 325 325 326 327 326 326 327 328 328 328 327 325 326 326 324 322 322 321 320 320 320 319 320 319 319 318 318 317 316 316 317 317 317 316 316
308 309 308 309 309 309 308 307 308 309 310 309 309 309 311 316 322 323 321 321 321 320 321 322 321 321 321 320 319 321 323 324 324 324 324 324 324 325 323 323 325 326 325 323 323 323 323 323 324 324 324 324 325 325 326 326 325 326 326 326 326 326 325 325 324 322 321 321 320 319 319 319 319 319 318 318 317 317 316 315 314 314 315 315 315 314
Wind_Speed
2 2 5 7 5 5 7 8 9 9 6 6 6 5 6 6 6 7 6 6 6 7 8 9 14 19 16 14 14 12 11 8 10 11 11 12 12 12 13 14 14 15 15 16 21 25 26 27 27 27 30 32 33 36 39 39 39 39 38 38 38 39 39 39 36 35 34 33 31 30 30 30 29 29 28 28 28 28 25 23 22 21 19 18 17 15
1 4 8 8 6 7 7 8 8 8 7 7 6 6 8 7 7 9 7 8 7 7 9 11 16 18 14 13 13 12 12 11 10 11 13 14 14 13 14 16 16 14 13 13 14 16 20 22 23 24 26 29 32 36 40 42 41 40 38 38 38 39 40 40 39 37 35 34 32 31 31 30 29 29 30 30 29 27 24 23 23 21 19 18 16 15
3 7 10 6 5 7 6 7 8 8 8 7 5 5 7 6 6 8 8 9 8 6 8 13 16 16 13 11 12 12 12 13 12 13 14 15 15 14 15 15 15 14 12 11 12 14 18 22 25 26 26 30 32 34 37 39 40 39 37 38 38 40 41 41 41 39 37 35 33 32 31 30 28 29 30 29 28 26 24 23 23 21 19 17 16 16
5 8 9 7 6 6 7 7 7 7 7 6 5 5 6 6 5 5 6 7 8 7 9 12 13 12 11 9 10 11 11 13 13 12 14 15 15 17 17 16 16 17 15 14 14 13 16 19 23 25 27 29 29 28 31 35 38 39 38 39 39 41 41 40 40 39 37 35 33 32 31 30 28 28 28 27 26 26 24 24 23 21 19 17 17 17
11 9 5 6 7 7 8 8 7 6 5 6 7 7 7 8 8 7 6 7 8 9 10 10 11 11 10 9 10 9 9 12 13 11 13 15 16 17 18 18 18 19 18 17 16 15 15 16 22 27 29 30 30 30 34 38 40 40 40 40 40 41 41 40 40 38 37 35 33 30 28 27 26 24 25 25 24 25 25 25 23 21 19 18 18 19
13 10 5 6 7 7 8 7 7 6 5 6 7 10 12 11 10 9 9 8 6 8 9 7 7 10 6 6 9 8 8 10 11 11 13 15 16 16 15 16 18 19 19 19 19 18 17 17 23 29 30 29 31 34 38 40 40 39 40 41 41 40 40 39 39 39 38 37 35 33 30 28 25 22 24 26 26 26 26 25 23 21 19 18 19 20
6 7 8 11 10 8 8 7 8 7 5 5 6 9 12 13 12 11 10 8 4 6 9 7 7 8 4 4 8 7 7 10 11 12 13 13 15 15 13 13 16 16 16 17 18 20 20 19 21 25 29 31 33 37 39 38 37 37 39 40 41 40 40 39 40 39 39 38 37 36 34 32 28 24 24 26 27 27 27 25 23 22 20 19 20 21
3 7 8 10 9 8 7 6 7 7 5 5 7 9 11 11 12 12 11 9 6 6 11 9 7 7 6 4 7 7 6 9 10 12 13 12 14 14 13 14 16 16 16 15 16 18 20 20 21 24 30 35 37 37 36 36 37 39 40 40 40 40 39 39 40 41 40 39 38 37 35 33 31 28 26 26 26 27 26 24 23 22 21 21 21 22
0 5 5 5 5 5 5 5 6 6 5 7 9 9 9 11 12 11 9 8 7 7 10 10 6 6 7 5 7 9 8 10 11 12 13 13 16 16 15 16 18 18 16 16 17 18 19 20 25 31 35 38 38 37 37 39 39 39 39 39 39 39 38 39 40 41 40 40 39 37 35 32 30 29 27 27 27 26 26 25 24 23 23 23 22 22
3 2 2 3 3 4 5 6 6 5 5 7 7 7 7 9 9 9 8 6 7 7 9 12 8 5 6 5 7 7 6 9 9 10 12 14 17 18 15 15 17 16 14 15 16 17 18 22 29 35 37 37 36 37 39 38 36 36 37 38 38 38 38 39 41 41 40 39 39 38 35 32 30 28 27 27 27 27 26 25 25 24 25 24 23 23
6 5 4 4 4 4 4 5 6 7 7 6 6 6 6 6 5 6 6 5 6 6 8 14 12 7 6 5 6 6 6 7 6 8 10 12 17 18 14 13 15 15 13 13 14 14 17 23 31 35 33 31 31 33 34 33 34 36 36 37 38 37 38 39 40 41 40 38 39 38 35 34 32 29 28 27 27 27 26 26 26 26 26 25 25 24
5 6 4 4 4 3 3 5 5 6 7 6 4 4 4 5 2 2 3 4 6 7 7 12 12 9 8 6 5 7 9 9 7 7 10 10 13 16 12 11 13 15 14 14 14 14 15 18 23 26 25 25 26 28 30 33 35 35 35 36 36 35 36 38 40 40 40 39 38 37 36 35 34 32 30 29 29 29 28 28 27 27 27 26 25 24
6 7 6 4 4 5 3 5 5 4 4 5 4 3 3 4 3 2 3 3 5 6 7 10 10 8 8 8 9 11 12 12 9 8 11 10 10 12 11 11 11 13 14 15 15 15 15 15 16 17 19 22 24 28 31 34 34 34 35 36 36 35 36 38 39 40 40 39 37 36 36 35 34 33 32 31 31 31 31 30 30 29 29 28 27 26
4 6 6 5 4 6 8 6 4 3 3 5 4 3 3 2 1 2 3 2 2 4 7 10 9 6 5 6 11 15 16 15 13 11 12 13 12 11 11 12 12 13 14 15 15 15 16 17 16 17 21 24 26 29 33 34 34 34 34 36 36 35 36 37 39 39 39 38 37 36 36 35 34 33 33 33 32 32 32 32 33 32 32 32 30 29
2 4 4 4 2 4 8 7 6 5 5 5 4 4 3 3 2 2 3 2 3 3 5 7 6 5 4 5 9 13 14 15 13 11 11 13 14 11 8 11 13 14 14 14 15 17 18 19 18 19 23 26 28 31 32 33 34 34 34 36 37 35 36 38 38 39 39 37 36 36 36 35 34 34 33 33 33 33 33 33 34 34 33 32 31 29
3 5 6 4 4 4 4 4 4 5 5 5 3 3 3 4 3 2 4 5 3 2 4 3 3 4 5 5 8 9 10 11 9 7 7 10 12 11 7 9 12 14 15 15 15 17 18 19 19 21 25 27 28 30 32 33 35 36 36 37 38 38 38 39 39 39 38 37 36 35 35 35 34 34 33 33 32 33 34 34 34 34 32 31 30 28
2 5 5 3 5 7 7 6 4 5 3 2 3 4 3 3 4 1 4 3 3 1 4 2 2 5 3 5 7 8 9 10 8 7 8 9 11 11 8 9 12 14 16 17 16 17 18 18 18 22 26 28 29 30 33 36 39 40 39 38 38 37 36 37 38 38 37 36 35 35 35 35 34 34 34 33 33 33 33 33 33 33 32 30 29 27
1 5 5 3 7 7 5 5 6 6 4 2 3 5 1 2 2 2 1 3 1 2 4 2 3 5 2 3 4 5 7 9 8 8 8 9 10 10 9 9 12 13 15 17 18 18 19 19 19 22 27 30 33 35 37 40 41 40 39 39 40 38 38 39 39 38 37 37 36 35 35 35 35 35 34 34 33 33 33 32 32 32 32 30 28 27
0 4 6 4 6 5 1 3 5 6 6 5 3 3 3 2 1 0 1 2 2 2 3 3 3 3 4 4 2 3 4 6 7 7 7 8 9 9 10 8 11 13 13 14 17 17 18 19 19 22 27 31 33 35 37 38 38 37 37 39 39 39 38 38 37 36 36 37 36 35 35 35 35 34 34 33 33 33 34 33 33 33 32 30 28 26
1 1 4 3 2 3 3 2 3 3 3 3 2 1 2 3 3 2 2 2 2 2 2 3 3 2 4 5 4 5 1 5 6 7 6 8 8 8 10 8 8 12 12 14 15 16 18 18 20 25 29 30 33 35 35 34 34 35 36 36 35 34 33 33 34 34 35 35 35 33 34 34 34 34 34 34 34 34 34 34 33 33 32 30 28 26
1 2 3 4 3 3 3 2 4 3 2 2 2 2 2 2 2 1 1 2 2 3 2 1 2 4 5 2 4 6 2 6 7 6 6 7 9 9 10 10 7 11 13 15 15 15 17 18 19 25 29 31 33 34 33 34 35 35 34 34 34 33 32 33 33 34 34 34 33 33 34 34 34 34 34 34 34 34 33 33 33 33 32 30 28 26
2 2 3 5 5 4 5 4 4 4 2 2 3 3 3 4 2 1 3 3 2 2 3 2 2 6 5 1 4 4 3 6 7 6 6 8 9 9 10 11 8 11 14 15 16 16 17 17 17 22 27 28 28 29 30 33 33 33 33 33 33 33 33 34 34 34 35 34 33 34 34 34 34 33 33 33 33 33 33 33 33 33 31 30 28 27
3 1 3 6 7 9 12 10 6 5 4 4 4 3 2 3 4 3 4 3 1 2 2 2 3 6 5 1 3 7 7 6 7 6 6 7 8 9 10 12 9 10 14 16 18 17 16 17 17 20 24 26 27 29 31 32 32 32 33 33 32 32 33 34 34 34 34 33 33 34 34 34 34 34 33 33 33 33 33 33 33 33 32 30 29 27
3 2 3 6 7 8 11 10 7 5 4 3 4 5 5 5 5 5 4 2 1 2 1 1 4 6 5 4 7 11 10 8 7 6 5 6 7 8 10 12 9 8 13 15 16 17 17 17 17 18 19 21 25 28 30 31 31 32 32 32 32 33 33 34 34 34 34 33 32 33 33 34 34 34 34 34 34 33 33 33 33 32 32 31 29 28
2 2 2 3 4 5 4 4 2 1 3 3 4 5 7 8 6 4 2 3 2 4 5 4 4 5 6 8 9 10 10 10 10 6 5 5 6 8 10 11 9 7 12 15 16 16 16 16 16 15 15 17 23 27 30 31 31 31 31 32 32 32 33 33 34 34 34 33 33 33 33 34 34 35 35 35 34 33 33 33 33 32 31 31 30 29
2 2 2 2 2 2 1 1 1 1 2 3 3 6 8 9 8 6 3 4 4 5 6 4 4 6 9 11 11 9 8 10 12 10 7 5 6 8 9 11 10 6 12 16 17 16 15 14 15 16 16 18 24 27 29 31 30 30 31 32 33 33 33 34 34 35 34 34 33 33 34 34 34 35 35 35 34 33 33 33 33 32 32 31 30 30
1 2 4 5 4 4 4 5 4 2 2 4 4 6 8 8 10 7 3 4 4 3 2 4 4 7 13 14 11 10 10 9 10 11 10 7 8 9 9 11 12 7 12 16 14 14 15 15 16 19 18 19 25 28 29 31 31 30 31 32 32 33 33 34 35 35 35 34 34 33 34 34 34 34 34 34 34 33 33 33 33 32 32 31 31 31
1 2 5 7 9 9 9 11 9 5 5 6 6 7 8 8 9 9 6 6 4 1 5 7 5 5 12 14 12 12 12 10 8 9 10 8 8 9 9 12 14 10 11 14 13 15 17 17 18 19 18 19 24 28 29 30 31 32 32 33 33 34 34 34 35 35 34 34 33 33 34 33 32 32 33 33 32 33 33 33 33 32 32 31 31 31
0 3 3 5 9 10 10 12 11 8 7 8 8 8 9 10 9 10 10 8 6 4 7 9 6 8 13 14 14 13 11 10 10 9 8 7 7 8 10 13 13 10 12 14 15 15 16 17 18 19 18 18 21 25 26 28 29 30 31 32 32 34 35 35 35 35 34 34 33 33 34 33 31 31 31 32 32 32 33 33 33 33 32 32 31 31
1 3 4 4 7 8 7 9 10 8 6 6 8 8 8 10 11 12 12 8 6 7 9 9 10 13 14 14 14 14 11 9 9 8 6 5 7 8 10 13 11 9 11 13 15 16 15 16 17 18 18 17 19 22 24 26 28 29 30 31 31 32 34 35 35 35 34 34 33 32 33 33 32 31 31 32 32 32 33 33 33 33 33 32 31 32
3 3 4 4 5 6 5 7 9 8 6 5 7 7 7 8 9 9 8 6 5 8 10 9 10 13 13 12 12 11 9 7 8 8 6 5 6 8 10 12 10 7 9 11 14 14 15 15 15 16 17 17 19 24 26 27 29 31 31 31 32 33 34 35 34 34 34 33 32 32 33 33 32 32 32 33 33 33 33 33 33 33 33 33 32 32
4 2 1 1 4 6 2 4 8 7 5 4 5 6 5 7 7 6 7 7 8 8 8 8 9 10 11 9 7 7 6 6 8 8 6 6 6 7 8 10 10 6 6 9 12 13 13 15 16 17 17 18 21 26 28 29 29 29 30 32 33 34 34 34 34 34 33 32 32 33 33 33 33 33 33 34 33 33 34 34 33 33 33 33 32 32
5 3 2 1 4 6 2 4 8 4 1 2 4 4 5 6 5 5 6 8 9 8 6 7 9 10 9 8 7 6 6 7 7 6 5 7 8 7 6 7 8 5 2 4 7 12 14 14 16 18 19 20 24 29 31 32 32 31 33 35 35 34 34 33 33 33 32 32 33 34 34 33 33 34 34 34 34 33 33 33 34 34 33 33 32 32
3 3 3 1 2 6 5 4 3 1 1 2 4 2 3 4 4 4 6 9 9 7 6 7 9 10 10 9 8 7 7 7 6 6 6 6 7 7 6 6 7 4 0 2 4 7 10 12 13 16 20 24 29 32 34 34 34 34 36 36 35 34 34 33 32 32 32 32 33 34 34 34 34 34 34 34 34 33 33 33 34 34 33 33 32 32
3 3 2 1 2 4 4 4 3 1 3 3 0 4 6 3 4 7 8 6 1 3 7 9 10 12 13 10 8 7 7 7 6 7 9 9 7 6 6 7 6 3 2 5 5 5 7 9 9 11 17 23 27 28 28 30 30 30 31 32 33 33 33 32 31 31 31 32 32 34 35 35 35 34 34 34 33 33 34 34 33 33 32 33 33 33
3 2 1 1 2 2 3 3 1 3 3 1 1 3 4 3 5 8 6 1 3 2 8 9 9 10 9 8 6 5 6 7 6 8 11 11 7 6 7 7 6 5 5 5 7 8 8 9 11 14 19 24 26 27 27 29 29 28 29 30 31 31 32 32 30 30 31 32 32 34 36 36 36 35 34 34 33 33 34 34 33 33 33 33 33 33
1 1 1 2 2 1 2 2 3 3 3 2 1 2 3 3 4 4 2 2 3 3 6 9 9 8 9 8 7 8 7 7 7 9 12 10 5 5 7 8 7 6 5 5 5 9 13 14 17 19 21 22 25 28 29 29 29 29 28 28 29 28 29 30 29 30 31 32 33 35 37 37 37 35 35 35 34 34 33 34 33 33 33 32 32 31
2 2 3 2 2 1 1 3 3 3 3 2 2 2 3 3 5 4 2 3 3 2 8 10 9 9 10 10 11 11 8 5 5 9 11 9 7 6 8 7 7 7 6 5 6 8 14 16 17 19 20 21 23 26 28 29 30 28 26 27 27 28 28 28 28 29 31 32 34 36 37 38 38 36 35 35 36 35 34 34 34 34 34 33 32 31
2 1 1 1 1 0 0 2 3 1 2 4 5 8 9 5 5 3 0 2 4 7 11 12 12 11 9 8 10 10 7 5 6 8 7 9 10 9 9 9 6 7 9 8 10 10 14 18 18 18 19 20 21 23 25 28 30 28 26 26 28 27 27 27 29 30 32 33 35 36 37 38 38 38 37 36 36 36 36 36 35 35 35 34 33 31
6 3 3 3 4 3 1 1 1 1 3 4 5 10 13 7 2 1 2 3 5 10 10 10 12 11 8 7 8 7 5 5 7 7 8 11 12 10 8 8 9 8 7 11 13 13 14 19 19 17 18 20 22 24 27 28 28 26 25 26 27 26 27 30 31 32 32 32 33 35 38 39 39 39 38 37 36 37 37 36 35 34 35 34 32 31
5 4 3 3 5 5 4 2 2 2 3 4 5 11 13 7 1 3 1 4 8 11 9 8 10 9 8 6 5 5 7 8 8 10 12 12 11 10 8 6 7 9 7 7 10 10 12 17 20 22 24 26 27 27 28 27 25 24 24 25 25 27 30 32 31 31 31 32 34 35 37 37 38 38 39 40 39 36 35 36 36 36 36 34 31 30
4 4 4 3 4 4 2 2 3 2 2 3 6 10 9 4 2 1 4 6 9 11 10 9 9 9 8 7 6 6 9 12 12 12 12 10 9 9 8 5 3 4 3 2 4 8 9 12 17 21 24 25 27 29 30 30 27 25 24 24 26 30 31 31 31 31 32 33 34 34 34 35 37 39 39 37 36 34 33 34 35 35 35 33 31 30
4 5 5 3 2 2 2 2 2 2 3 7 10 8 4 2 2 5 7 8 8 10 11 9 8 8 8 9 8 8 11 13 14 12 10 9 8 7 7 6 2 4 5 4 6 11 12 10 13 18 22 25 28 30 31 30 25 23 23 25 27 29 29 29 30 32 32 33 34 33 33 34 35 36 35 33 33 34 33 32 32 32 32 32 31 30
2 3 4 3 2 3 3 3 2 3 6 8 8 5 4 6 5 5 7 8 8 9 9 8 8 8 7 9 10 10 11 12 12 11 9 7 6 6 6 6 4 0 5 7 9 15 17 13 12 16 20 23 27 30 31 31 28 25 25 27 28 28 28 29 31 31 31 32 32 31 32 33 33 33 31 31 31 31 31 31 30 29 28 28 28 27
3 4 4 4 3 3 4 6 6 6 7 7 5 5 9 10 7 5 5 6 7 8 7 8 10 10 8 8 9 8 8 9 10 9 8 7 6 5 5 4 3 1 2 4 7 14 17 15 14 15 14 17 23 28 31 33 32 30 28 28 29 30 29 30 30 31 31 30 28 29 30 30 30 29 28 29 31 31 30 30 28 26 25 24 24 25
6 6 4 4 5 6 6 8 7 6 9 9 6 4 6 8 7 5 6 6 6 8 8 7 9 10 9 8 8 7 6 7 9 9 8 8 8 7 5 5 4 2 3 4 4 9 14 15 14 14 15 19 26 31 34 36 36 32 29 29 31 32 32 32 30 30 31 29 28 29 30 29 28 29 28 30 32 32 31 31 29 28 28 28 27 26
5 4 3 4 6 6 6 7 8 9 12 13 9 4 5 6 5 5 6 6 6 8 10 9 10 10 8 7 7 7 7 6 7 8 7 7 7 7 6 4 4 3 4 5 6 8 10 10 9 9 13 18 22 23 23 23 21 20 21 23 26 28 30 32 32 28 26 27 29 31 32 30 29 30 30 30 30 28 27 29 29 29 29 29 28 26
4 5 6 6 6 5 8 12 13 13 12 11 7 4 4 5 6 7 6 5 6 8 10 10 9 7 7 7 7 7 6 6 6 6 6 6 5 6 5 4 2 2 5 7 10 11 9 6 5 6 8 11 13 12 14 18 21 23 24 23 24 25 24 25 28 26 24 27 29 30 31 30 30 30 30 29 28 28 27 28 30 30 31 31 31 29
4 5 4 5 7 7 8 11 14 16 15 12 10 9 8 6 8 9 7 5 6 8 9 10 9 7 6 6 6 6 6 6 6 6 5 5 5 4 5 5 3 3 4 7 10 12 12 10 11 12 12 14 19 22 23 24 26 30 33 31 30 30 26 23 24 26 26 28 29 28 28 29 29 30 29 28 27 27 27 29 31 32 32 32 33 33
3 5 3 4 6 8 9 12 14 12 12 15 17 17 13 9 9 10 7 7 8 8 8 10 11 10 8 6 4 4 5 4 5 5 4 4 5 5 5 4 3 2 4 7 11 14 15 15 17 18 17 17 20 23 24 24 24 26 30 32 31 30 28 26 25 25 26 28 29 29 30 29 27 27 28 28 28 26 24 24 26 27 28 29 30 31
3 5 4 4 6 9 12 16 13 8 9 15 18 18 15 11 9 9 8 8 8 8 8 9 10 11 12 9 6 4 4 4 4 4 4 5 4 4 5 4 2 1 3 7 9 11 13 15 17 19 20 20 23 25 26 26 26 25 25 27 29 29 29 29 27 25 25 27 29 31 31 30 28 27 27 27 27 26 24 21 19 20 22 24 26 27
Wind_Direction
139 216 249 235 218 194 205 213 226 248 268 272 269 272 268 265 267 267 268 277 286 285 273 264 262 264 263 255 248 254 259 235 217 218 206 198 196 196 196 194 194 200 207 206 203 199 194 193 193 191 188 185 183 181 181 182 184 187 188 187 187 189 190 189 190 192 194 195 195 199 205 210 211 210 214 214 211 212 216 219 219 220 223 219 215 214
32 230 243 234 213 204 215 223 235 252 256 257 259 267 269 260 264 268 268 279 287 284 276 276 276 274 273 267 256 246 248 246 226 213 213 202 194 199 200 198 196 198 205 200 197 196 192 191 190 191 191 187 183 182 183 184 185 187 187 187 187 187 189 190 190 191 193 195 195 197 203 206 205 205 208 208 208 212 217 219 220 220 221 217 215 216
276 251 250 234 205 211 229 237 239 246 247 249 247 255 266 262 268 272 263 263 268 271 274 273 274 276 277 273 266 252 238 243 233 209 212 208 195 198 201 200 196 196 197 190 189 191 189 189 188 189 191 191 189 186 186 185 184 186 187 188 187 186 188 190 190 190 191 194 197 200 204 205 202 202 205 209 211 213 216 217 218 219 217 213 214 215
241 251 248 229 213 219 236 240 236 246 246 240 239 243 258 261 262 270 262 256 253 251 262 271 276 276 276 274 271 264 243 238 236 209 208 214 202 199 200 197 194 193 192 186 188 188 185 187 187 189 191 191 190 189 189 189 186 186 188 188 187 187 188 189 190 190 191 192 195 201 206 206 204 204 205 208 211 212 213 213 215 216 213 211 212 210
236 240 224 215 215 215 233 241 229 234 246 237 231 232 249 254 245 251 272 276 271 263 256 263 278 275 266 266 264 261 248 237 232 212 207 216 212 206 200 195 193 191 188 184 185 186 183 183 187 191 191 188 187 190 192 193 190 188 188 188 188 188 188 188 188 188 188 187 188 192 197 199 200 201 200 200 202 204 207 210 213 213 211 212 210 207
245 238 216 235 232 211 221 239 227 213 238 250 232 226 237 247 246 248 263 272 277 273 254 225 252 273 266 258 254 242 238 239 233 218 210 212 214 212 204 196 195 193 189 185 183 183 183 184 188 191 191 187 188 193 195 195 193 190 189 188 188 188 188 188 187 187 186 184 184 185 186 188 189 189 192 195 196 198 203 208 212 213 211 209 206 206
245 208 202 230 234 221 217 234 231 203 216 257 235 222 229 240 246 246 251 256 248 264 261 214 216 269 290 272 264 253 238 237 235 227 218 213 213 211 204 198 199 197 192 189 185 182 182 183 188 191 188 187 192 197 197 196 195 192 190 189 189 188 188 188 187 186 186 184 184 187 188 190 190 188 191 195 197 201 205 209 212 212 208 206 205 205
195 183 199 219 222 226 224 237 231 193 197 249 241 231 228 233 238 237 240 246 241 256 268 246 215 259 277 260 265 277 274 256 243 233 223 217 218 212 202 198 201 200 194 190 188 186 183 183 187 189 189 192 195 195 194 195 195 193 191 190 189 189 188 187 186 186 187 186 185 187 189 192 194 194 194 194 198 203 206 208 209 208 204 203 204 206
156 175 194 208 214 228 220 236 233 192 202 246 249 245 237 235 236 235 236 244 244 245 264 258 220 240 265 254 259 271 277 271 257 239 228 218 219 216 204 197 199 201 195 189 189 188 186 186 188 189 192 194 194 191 193 195 195 194 192 190 189 189 188 187 186 187 189 189 187 187 189 190 194 197 198 196 198 202 204 205 204 202 201 200 201 204
286 213 210 215 216 226 218 232 233 208 223 253 269 273 262 250 242 238 235 239 248 236 248 255 233 230 261 246 252 263 255 255 255 245 232 218 219 219 206 198 199 197 194 191 190 189 187 188 190 192 195 194 190 190 193 194 193 193 192 190 189 189 188 187 187 187 188 189 188 188 188 188 190 194 195 194 197 200 201 201 199 198 198 197 196 199
250 264 269 239 210 213 231 242 232 222 234 257 285 286 281 267 241 238 233 218 244 243 241 252 242 232 254 243 237 245 230 229 239 251 243 223 222 222 206 193 196 195 190 189 189 189 190 191 193 195 196 191 187 188 189 190 191 192 192 190 189 189 188 187 186 187 188 189 190 190 189 189 190 192 191 189 192 195 197 197 196 196 195 194 195 196
263 261 257 236 210 217 267 277 258 248 244 248 267 269 288 300 293 273 236 194 230 243 237 251 245 226 240 252 245 242 240 236 230 248 257 241 228 227 214 194 194 194 189 184 184 186 188 192 197 198 194 186 183 183 185 189 192 192 191 190 189 188 188 187 186 187 188 190 192 191 190 191 193 193 191 190 191 193 194 195 194 193 191 191 193 194
276 252 241 232 221 207 231 275 273 279 255 231 240 244 250 290 316 296 245 205 232 246 235 241 242 231 234 241 242 245 249 247 236 237 256 258 242 230 217 202 197 194 190 185 183 183 184 190 196 196 189 183 182 184 186 189 191 191 191 190 188 188 188 187 186 186 188 190 192 192 191 192 194 195 195 195 195 195 195 195 194 191 190 190 191 193
295 274 241 211 215 194 189 221 246 252 240 216 205 199 204 232 284 265 262 276 261 250 243 238 235 242 248 233 232 240 245 246 243 239 247 259 256 238 214 203 201 195 192 188 183 183 184 188 191 190 187 185 185 188 188 189 190 190 190 190 189 188 187 187 186 187 189 191 193 193 193 194 195 195 197 198 198 198 197 197 196 194 193 192 192 193
266 289 241 192 210 193 189 205 209 206 234 233 188 150 180 188 172 216 240 258 260 264 266 251 225 217 231 223 220 229 239 244 245 243 245 256 261 253 216 197 198 195 193 190 187 187 186 187 188 188 188 187 188 189 188 188 190 189 190 191 189 187 187 187 186 187 189 191 192 193 194 195 196 196 198 200 202 201 200 199 198 196 195 194 194 195
207 260 252 226 246 252 253 248 189 190 236 245 178 138 199 191 163 218 242 219 209 274 291 268 227 222 227 232 222 219 234 245 246 246 250 257 262 259 226 195 197 194 190 191 190 189 188 187 187 187 187 188 189 188 187 188 189 190 191 191 189 188 187 186 186 187 189 189 190 192 194 195 195 197 198 199 202 202 202 202 199 196 196 195 195 196
213 265 265 270 263 246 246 243 201 188 208 221 182 182 206 172 146 193 273 252 157 189 269 246 261 282 280 266 244 220 233 253 257 254 253 253 256 254 229 195 198 198 191 190 189 187 188 188 190 190 187 187 187 187 189 191 191 191 190 188 189 189 187 186 187 187 188 188 189 192 193 194 195 196 198 199 200 201 202 202 200 197 196 197 197 199
234 280 275 267 266 248 210 215 238 228 194 173 202 196 149 42 76 119 287 299 139 204 269 253 246 262 246 273 272 225 238 259 265 268 276 280 275 267 247 206 195 200 196 190 187 186 187 188 191 191 189 188 188 188 190 192 193 192 190 188 188 188 187 187 187 187 187 187 188 191 192 194 196 197 199 200 201 202 201 201 200 198 197 198 200 202
210 290 286 255 256 271 186 183 258 260 215 206 218 180 122 80 302 310 202 243 207 208 280 287 273 250 209 229 222 189 246 276 278 286 299 295 290 289 276 238 194 190 194 192 188 187 188 190 190 190 190 190 189 189 191 193 192 191 190 190 189 189 188 186 185 186 186 187 188 190 191 193 195 197 198 200 201 202 201 201 201 200 199 200 202 204
132 279 290 277 256 311 336 175 221 264 233 228 245 168 136 154 185 210 205 210 193 185 248 298 320 274 233 233 171 134 348 300 280 290 294 284 293 311 306 276 208 186 189 190 190 190 189 191 191 190 189 187 187 190 191 191 191 191 191 190 189 189 187 184 185 185 185 187 188 189 190 192 193 195 197 199 201 202 202 203 202 201 202 203 203 205
143 172 261 291 321 322 303 205 185 193 173 183 205 195 190 174 167 198 231 223 195 182 202 269 311 266 257 271 111 100 359 276 262 284 297 302 316 327 322 299 235 192 187 187 188 190 190 190 190 189 188 187 188 189 187 186 189 190 190 189 187 186 185 184 185 185 185 186 187 187 188 190 191 193 195 198 200 202 202 203 203 203 204 205 205 207
181 185 242 284 308 287 256 223 174 159 151 188 216 210 190 181 169 247 267 264 229 187 187 174 262 266 257 182 106 86 333 283 275 290 304 318 324 326 325 311 262 201 187 186 186 189 190 188 187 186 186 186 186 185 184 185 187 188 188 187 186 185 184 184 184 185 185 186 186 187 188 188 189 191 194 196 198 201 202 202 203 204 205 206 208 209
139 169 256 265 270 262 259 256 230 211 236 246 242 239 216 185 165 184 233 264 289 256 219 181 247 267 259 238 4 352 338 309 280 276 296 312 317 319 321 317 288 214 193 188 185 187 189 187 185 184 183 183 182 182 184 185 186 187 187 185 184 185 185 185 185 185 185 185 186 187 187 187 188 190 193 195 197 199 201 202 203 205 206 208 210 211
133 165 251 266 272 268 267 267 249 213 209 232 241 224 212 213 200 192 195 188 246 271 259 254 256 265 277 313 341 333 324 314 284 267 287 304 311 316 314 319 308 235 201 192 189 188 187 186 183 181 180 180 181 181 182 184 185 186 185 183 184 186 186 185 185 185 185 185 185 185 185 186 188 191 193 195 197 198 199 202 204 205 206 208 210 211
171 163 227 271 301 312 319 325 326 153 165 195 228 212 208 215 207 195 178 162 236 247 206 215 255 264 289 310 320 312 308 313 303 284 285 298 311 314 311 320 313 251 206 197 195 191 186 183 179 177 177 178 180 181 182 184 185 184 182 183 185 185 184 184 184 183 184 185 184 183 184 186 189 191 193 194 196 197 198 201 204 204 206 208 210 209
178 157 181 243 299 317 322 273 217 235 241 226 215 203 207 209 196 190 179 174 220 238 204 205 272 290 297 300 299 296 299 309 310 311 311 306 313 314 311 317 312 256 207 203 198 189 183 179 175 175 177 179 180 181 182 183 183 182 182 183 185 184 182 183 183 182 184 184 183 182 183 186 190 191 193 193 194 195 198 201 203 203 206 209 209 207
206 193 200 230 238 231 246 250 232 228 258 251 239 218 207 206 201 191 173 182 204 247 245 225 242 281 293 293 292 297 302 306 307 310 315 323 323 318 313 312 308 266 211 205 198 187 180 176 177 177 177 179 180 181 181 181 181 181 180 182 184 183 181 181 181 181 183 183 182 181 183 186 190 191 191 192 193 195 199 201 203 204 206 208 208 205
315 235 212 223 234 243 260 270 269 265 257 254 252 232 212 212 209 197 205 213 188 169 277 252 226 261 281 283 288 297 302 304 299 296 308 321 314 308 316 314 303 271 218 201 193 189 181 175 177 179 178 179 180 180 180 181 182 181 180 181 181 181 181 181 181 181 182 183 183 182 183 186 189 190 190 191 192 195 197 199 202 204 205 205 205 206
195 254 218 205 232 242 247 260 261 252 246 244 241 232 219 215 209 206 221 219 168 173 249 260 266 271 271 276 284 289 291 291 287 285 297 308 303 311 327 321 300 261 216 197 189 188 185 179 177 177 178 179 178 178 178 179 182 182 181 181 180 180 181 180 180 181 182 183 184 184 183 184 187 189 189 189 191 192 194 197 199 201 201 202 205 207
149 247 219 209 252 251 233 248 253 245 249 253 246 240 224 213 210 214 223 214 186 211 239 255 270 270 266 270 277 281 280 271 269 281 299 310 317 331 332 321 300 253 213 195 187 185 185 181 177 176 176 176 175 176 177 178 181 182 182 181 179 180 181 180 180 181 182 184 185 184 183 183 185 187 187 188 190 192 192 193 195 196 197 201 204 206
192 230 204 197 271 272 228 234 243 234 235 252 259 260 239 217 213 219 226 213 206 234 245 253 266 269 267 268 268 268 269 269 281 301 310 307 327 339 330 321 310 263 215 194 185 184 181 178 177 176 175 176 177 177 177 179 181 182 182 180 180 181 181 181 181 182 184 185 185 183 182 183 185 186 187 188 190 191 191 191 192 194 196 198 201 203
194 250 232 158 304 295 247 256 269 250 223 242 279 288 253 216 203 210 217 211 212 231 248 254 259 262 265 270 269 258 260 281 298 306 308 310 332 337 318 316 317 287 226 199 186 180 179 177 177 178 180 180 179 179 180 180 180 181 181 181 182 182 181 182 182 183 185 185 183 182 182 182 184 184 186 188 190 189 189 189 191 192 194 195 198 200
185 243 274 77 310 294 300 315 299 302 42 272 265 264 249 238 226 211 210 218 219 219 229 242 245 252 265 278 280 276 287 301 304 302 299 304 314 311 294 302 312 307 252 208 193 184 183 183 181 182 183 181 181 182 182 180 179 181 182 182 182 181 180 182 183 183 184 183 182 181 181 182 183 183 185 188 189 188 186 187 190 191 193 196 198 199
197 227 243 161 276 287 306 335 336 34 56 253 238 265 306 279 259 248 240 235 227 216 228 252 257 262 272 277 267 263 275 283 282 282 278 272 279 285 281 285 296 307 93 191 210 194 190 192 190 187 185 184 185 184 183 182 182 183 182 181 179 179 181 183 183 183 183 182 181 181 180 181 182 182 184 187 187 186 186 187 189 190 193 196 196 196
237 203 209 190 207 275 315 9 40 219 232 232 335 14 6 341 303 302 283 255 248 323 298 289 282 275 274 270 253 247 265 280 291 297 290 277 263 259 264 266 270 277 234 199 190 184 195 202 198 192 188 186 184 182 181 184 184 182 180 178 177 179 181 182 182 182 182 181 181 180 179 180 181 182 183 185 184 184 185 186 187 189 192 195 195 197
251 190 179 241 231 281 336 24 3 277 273 290 58 23 13 348 326 328 320 358 76 333 291 289 291 291 289 279 266 276 300 320 332 308 288 280 263 239 244 249 241 240 242 216 183 170 180 195 196 194 192 186 181 179 182 184 182 178 178 179 178 180 180 180 181 181 181 181 180 179 179 179 179 181 182 182 182 182 183 184 186 189 192 193 195 198
351 218 253 261 244 292 310 285 277 312 346 7 63 43 11 321 309 322 314 245 195 220 299 313 314 327 338 330 324 328 328 339 342 307 290 290 282 247 245 241 227 224 244 252 212 176 174 188 198 199 195 186 181 182 182 181 179 176 176 178 179 180 180 180 182 182 181 180 180 179 178 179 179 181 181 181 181 181 182 183 186 190 191 191 193 196
344 282 280 266 253 305 313 297 323 11 0 306 284 325 327 278 253 243 246 257 241 315 345 333 325 341 352 345 339 337 332 338 321 291 291 309 323 309 288 265 226 206 217 253 247 191 174 181 192 196 194 188 187 187 182 177 176 175 175 178 179 180 181 182 183 183 181 181 180 179 178 179 180 181 181 181 181 181 183 184 187 190 192 192 194 197
350 284 254 234 267 328 101 296 326 8 283 274 296 326 334 307 242 228 63 280 295 346 349 335 331 341 346 340 335 331 325 307 278 273 297 322 320 312 307 299 266 212 194 209 229 210 179 173 178 184 187 187 187 188 182 178 176 174 175 178 179 179 181 183 184 184 182 182 180 178 178 179 181 182 182 182 182 183 184 185 188 191 193 194 196 200
360 359 13 16 344 334 347 313 300 253 262 274 304 331 334 317 247 85 54 266 310 345 342 325 321 324 325 328 327 316 291 262 263 288 315 316 306 297 291 288 278 252 208 197 214 213 184 171 169 170 179 186 187 186 182 179 177 177 179 179 178 180 184 186 186 185 182 180 178 177 179 181 183 183 183 184 185 185 186 186 187 189 191 193 197 201
342 345 357 359 337 335 349 346 304 273 264 270 315 334 332 324 36 78 167 266 313 329 321 306 304 302 302 306 300 287 276 268 279 300 305 300 298 297 295 285 267 262 251 213 207 199 178 173 175 178 186 189 186 181 179 178 178 181 182 179 180 185 188 186 184 182 179 177 176 178 181 182 183 183 185 188 188 187 186 187 188 190 192 193 195 198
335 336 330 332 333 341 341 288 286 294 266 286 326 335 335 340 14 304 275 289 312 315 310 305 295 291 291 281 260 262 277 283 291 294 289 289 291 292 300 305 250 231 249 243 195 176 176 191 191 187 189 188 182 180 180 180 182 184 181 181 187 190 186 182 180 179 176 174 176 178 180 182 183 186 188 188 186 183 184 186 189 191 191 191 192 195
335 334 330 328 321 312 304 318 343 332 303 319 333 340 347 350 281 274 289 307 313 310 310 304 291 292 296 292 289 291 292 295 296 288 283 293 301 300 307 312 278 167 151 143 153 163 177 201 202 192 189 185 182 183 182 181 183 184 183 188 191 187 180 178 177 175 173 173 175 178 181 183 186 188 188 186 183 181 181 184 187 189 190 189 189 191
335 348 328 315 324 336 342 348 335 265 280 305 323 322 296 289 281 278 296 310 313 312 311 306 302 299 291 289 296 299 297 297 295 290 291 297 297 297 303 311 323 176 162 162 164 169 176 190 203 200 194 185 182 184 185 183 183 187 191 192 186 178 174 174 173 171 171 172 174 177 182 185 188 189 187 183 180 177 177 182 185 186 188 188 185 185
326 330 304 286 296 303 282 267 258 262 280 289 287 283 290 292 286 272 276 288 301 307 306 304 303 301 298 293 288 284 288 291 291 295 300 295 278 264 262 271 286 263 163 152 165 175 178 182 186 186 185 186 187 189 189 186 184 187 191 187 177 171 169 168 168 169 171 172 173 176 180 183 183 182 179 177 178 179 179 181 181 180 182 184 184 186
288 304 298 281 294 292 266 254 261 288 300 295 280 254 275 289 292 284 277 279 293 301 299 295 295 297 302 298 289 285 287 291 296 304 305 296 279 254 229 225 230 205 130 102 133 177 182 182 176 166 166 181 195 200 198 194 191 189 185 177 170 168 166 165 167 170 171 170 170 174 177 177 175 174 174 178 183 186 185 182 180 180 182 184 187 190
283 313 331 304 299 306 297 289 304 313 305 303 303 276 258 275 283 279 274 274 290 301 298 295 295 296 294 289 287 293 298 305 313 311 304 299 286 268 246 219 197 165 128 122 134 157 170 175 174 166 166 180 199 210 204 188 177 168 159 155 157 160 163 166 168 169 166 163 165 172 177 175 171 170 174 178 181 183 183 183 182 182 181 182 184 187
301 344 339 308 293 296 289 291 305 308 294 289 291 278 268 271 273 275 272 270 290 300 296 294 297 295 292 291 290 296 309 321 324 310 301 301 292 282 280 272 242 115 111 126 134 140 142 135 129 129 131 142 153 153 140 130 128 132 138 146 154 159 163 168 168 163 157 156 162 171 175 173 169 168 171 175 178 181 184 185 185 186 187 188 190 189
293 317 314 303 305 303 290 299 321 325 317 314 316 312 307 298 292 295 295 288 293 294 293 302 309 302 295 297 297 306 320 325 321 315 308 303 299 297 303 310 329 30 87 111 121 127 124 113 110 110 107 116 128 132 132 136 143 148 153 160 166 166 168 172 167 157 152 155 160 166 168 170 171 171 170 172 177 183 187 189 191 193 194 196 199 200
279 285 294 326 322 313 309 317 328 330 318 314 314 313 312 307 297 296 299 304 305 301 306 320 325 320 318 321 321 323 328 323 319 321 315 307 310 314 315 319 341 40 103 115 114 116 117 116 116 116 114 118 124 125 126 130 137 147 155 162 166 166 166 166 160 152 151 155 159 163 166 168 170 170 170 172 176 180 185 190 195 198 199 200 202 204
216 263 287 307 295 290 297 304 310 308 293 292 298 303 307 306 295 290 295 303 303 300 311 328 332 328 327 331 337 343 336 320 320 331 330 315 307 308 309 306 302 124 133 133 125 118 117 119 120 122 127 132 131 129 129 131 137 147 157 164 166 166 164 160 154 150 154 158 160 164 166 166 167 170 172 174 175 177 179 181 188 197 203 204 204 204